Weather History for Belize, Belize

Change the Weather History Date:

Sunday, December 2, 2012

  Actual Average Record
Temperature  
Mean Temperature 76 °F -  
Max Temperature 84 °F - 86 °F (1997)
Min Temperature 69 °F 69 °F 62 °F (2011)
Cooling Degree Days 12    
Growing Degree Days 26 (Base 50)    
Moisture  
Dew Point 72 °F    
Average Humidity 84    
Maximum Humidity 100    
Minimum Humidity 61    
Precipitation  
Precipitation 0.12 in 0.23 in - ()
Sea Level Pressure  
Sea Level Pressure 30.04 in    
Wind  
Wind Speed 4 mph ()    
Max Wind Speed 10 mph    
Max Gust Speed -    
Visibility 6.8 miles    
Events Fog    
Averages and records for this station are not official NWS values.
T = Trace of Precipitation, MM = Missing Value Source: Averaged Metar Reports

Daily Weather History Graph

Daily Weather History Graph

Search for Another Location

Airport:

Trip Planner

Search our weather history database for the weather conditions in past years. The results will help you decide how hot, cold, wet, or windy it might be!

Date:

Astronomy

Dec. 02, 2012 Rise Set
Actual Time 6:08 AM CST 5:17 PM CST
Civil Twilight 5:45 AM CST 5:40 PM CST
Nautical Twilight 5:18 AM CST 6:07 PM CST
Astronomical Twilight 4:51 AM CST 6:34 PM CST
Moon 8:50 PM CST (12/2) 9:09 AM CST (12/2)
Length of Visible Light 11h 55m
Length of Day
11h 08m
Waning Gibbous, 85% of the Moon is Illuminated
Dec 2
Waning Gibbous
Dec 6
Last Quarter
Dec 13
New
Dec 19
First Quarter
Dec 28
Full

Hourly Weather History & Observations

Time (CST) Temp. Heat Index Dew Point Humidity Pressure Visibility Wind Dir Wind Speed Gust Speed Precip Events Conditions
12:00 AM 74 °F - 72 °F 92% 30.07 in 12 mi Calm Calm - -  
3:00 AM 72 °F - 71 °F 96% 30.03 in 12 mi Calm Calm - -   Scattered Clouds
5:00 AM 71.6 °F - 69.8 °F 94% 30.04 in 6.2 mi WNW 4.6 mph - N/A   Partly Cloudy
6:00 AM 71 °F - 70 °F 95% 30.05 in 4 mi WNW 4.6 mph - -   Partly Cloudy
6:00 AM 69.8 °F - 69.8 °F 100% 30.04 in 4.3 mi WNW 4.6 mph - N/A   Partly Cloudy
6:30 AM 69.8 °F - 69.8 °F 100% 30.04 in 1.9 mi WNW 4.6 mph - N/A   Mostly Cloudy
7:00 AM 69.8 °F - 69.8 °F 100% 30.06 in 0.9 mi West 4.6 mph - N/A   Mostly Cloudy
7:03 AM 69.8 °F - 69.8 °F 100% 30.06 in 0.4 mi WNW 4.6 mph - N/A Fog Fog
8:00 AM 71.6 °F - 71.6 °F 100% 30.06 in 2.2 mi NW 5.8 mph - N/A   Mostly Cloudy
8:15 AM 71.6 °F - 71.6 °F 100% 30.09 in 6.2 mi NW 5.8 mph - N/A   Scattered Clouds
9:00 AM 76 °F - 73 °F 87% 30.10 in 12 mi NW 5.8 mph - -   Scattered Clouds
9:00 AM 77.0 °F - 73.4 °F 89% 30.09 in 6.2 mi NW 5.8 mph - N/A   Partly Cloudy
10:00 AM 80.6 °F 84.6 °F 71.6 °F 74% 30.08 in 6.2 mi North 5.8 mph - N/A   Scattered Clouds
11:00 AM 82.4 °F 87.2 °F 71.6 °F 70% 30.07 in 6.2 mi NNE 10.4 mph - N/A   Scattered Clouds
12:00 PM 83 °F - 72 °F 61% 30.05 in 12 mi NE 9.2 mph - -   Partly Cloudy
12:00 PM 82.4 °F 87.2 °F 71.6 °F 70% 30.05 in 6.2 mi NE 9.2 mph - N/A   Scattered Clouds
1:00 PM 84.2 °F 89.6 °F 71.6 °F 66% 30.01 in 6.2 mi NE 9.2 mph - N/A   Partly Cloudy
2:00 PM 84.2 °F 90.9 °F 73.4 °F 70% 29.99 in 6.2 mi NE 10.4 mph - N/A   Scattered Clouds
3:00 PM 82 °F - 73 °F 68% 29.99 in 15 mi NE 9.2 mph - -   Partly Cloudy
3:00 PM 82.4 °F 88.2 °F 73.4 °F 74% 29.98 in 6.2 mi NE 9.2 mph - N/A   Partly Cloudy
4:00 PM 82.4 °F 88.2 °F 73.4 °F 74% 29.99 in 6.2 mi NE 8.1 mph - N/A   Partly Cloudy
5:00 PM 80.6 °F 85.4 °F 73.4 °F 79% 30.00 in 6.2 mi NNE 8.1 mph - N/A   Partly Cloudy
6:00 PM 78 °F - 74 °F 84% 30.01 in 12 mi NNE 5.8 mph - -   Mostly Cloudy
6:00 PM 78.8 °F - 73.4 °F 83% 30.01 in 6.2 mi NNE 5.8 mph - N/A   Mostly Cloudy